This is the latest recevied weather packets stored in our database for station/object CE3TDM-12. If no packets are shown the sender has not sent any weather packets the latest 10 day(s).
| Time | Temp. | Humidity | Pressure | Rain* | Wind** | Luminosity | Snow |
|---|---|---|---|---|---|---|---|
| 1777500170 | 17.22° C | 37% | 776.9 hPa | - | - | - | - |
| 1777499868 | 17.78° C | 37% | 777 hPa | - | - | - | - |
| 1777499562 | 18.33° C | 36% | 776.9 hPa | - | - | - | - |
| 1777499261 | 18.89° C | 36% | 776.8 hPa | - | - | - | - |
| 1777498960 | 19.44° C | 36% | 776.9 hPa | - | - | - | - |
| 1777498660 | 19.44° C | 36% | 776.8 hPa | - | - | - | - |
| 1777493258 | 23.89° C | 34% | 776.4 hPa | - | - | - | - |
| 1777492958 | 23.89° C | 34% | 776.4 hPa | - | - | - | - |
| 1777492651 | 23.89° C | 34% | 776.5 hPa | - | - | - | - |
| 1777492350 | 23.89° C | 34% | 776.4 hPa | - | - | - | - |
| 1777492039 | 24.44° C | 35% | 776.4 hPa | - | - | - | - |
| 1777491739 | 24.44° C | 34% | 776.6 hPa | - | - | - | - |
| 1777491435 | 24.44° C | 34% | 776.4 hPa | - | - | - | - |
| 1777491135 | 23.89° C | 34% | 776 hPa | - | - | - | - |
| 1777485273 | 27.22° C | 34% | 776.7 hPa | - | - | - | - |
| 1777484964 | 27.22° C | 34% | 776.9 hPa | - | - | - | - |
| 1777484664 | 27.22° C | 34% | 776.9 hPa | - | - | - | - |
| 1777484364 | 27.78° C | 34% | 776.8 hPa | - | - | - | - |
| 1777484063 | 27.22° C | 34% | 777.2 hPa | - | - | - | - |
| 1777480787 | 27.22° C | 34% | 777.9 hPa | - | - | - | - |
| 1777480487 | 27.22° C | 34% | 778 hPa | - | - | - | - |
| 1777477764 | 27.22° C | 34% | 778.2 hPa | - | - | - | - |
| 1777477463 | 27.22° C | 34% | 778.3 hPa | - | - | - | - |
| 1777477163 | 27.22° C | 34% | 778.4 hPa | - | - | - | - |
| 1777476862 | 27.22° C | 34% | 778.4 hPa | - | - | - | - |
* Rain since midnight (hover to see other rain measurements)
** Current wind speed in m/s (hover to see current wind gust speed)